Simultaneous Nadir Overpasses (SNOs) Predictions

Prediction of SNOs between LANDSAT-8 and NOAA-19 Satellite Orbit:

Table of predicted SNOs for the next 14.0 days since TLE Epoch: 7/2/2022
Index Date (LANDSAT-8) Time (LANDSAT-8) Lat,Lon (LANDSAT-8) SZA (LANDSAT-8 ) Date (NOAA-19) Time (NOAA-19) Lat,Lon (NOAA-19) SZA (NOAA-19 ) Distance(km) Time Diff (sec)
1 07/03/2022 08:08:57 -80.80, -86.53 120.44 07/03/2022 08:08:12 -80.81, -86.56 120.45 1.20 45
2 07/03/2022 08:58:23 80.81, 81.20 59.58 07/03/2022 08:59:15 80.80, 81.21 59.60 1.11 52
3 07/05/2022 14:32:07 -80.82, 177.90 120.21 07/05/2022 14:32:06 -80.81, 177.86 120.23 1.89 1
4 07/07/2022 20:05:51 80.81, -85.67 59.99 07/07/2022 20:05:06 80.82, -85.84 59.96 3.14 45
5 07/07/2022 20:55:18 -80.81, 81.95 120.01 07/07/2022 20:56:01 -80.81, 81.89 120.00 1.14 43
6 07/10/2022 02:29:01 80.82, 178.66 60.27 07/10/2022 02:28:59 80.81, 178.71 60.26 1.53 2
7 07/12/2022 08:02:45 -80.83, -84.67 119.43 07/12/2022 08:01:51 -80.81, -84.59 119.46 2.24 54
8 07/12/2022 08:52:11 80.83, 82.97 60.57 07/12/2022 08:52:53 80.81, 82.84 60.56 3.13 42



Historial Predications of SNOs between LANDSAT-8 and NOAA-19
